QPF
0.00 0.00 0.00 0.00 0.00 0.00 0.00 0.00 0.00 0.00 0.00 0.00 0.00 0.00 0.00 0.00 0.00 0.00 0.00 0.00 0.00 0.00 0.00 0.00 0.00 0.00 0.00 0.00 0.00 0.01 0.00 0.00 0.00 0.00 0.00 0.00 0.00 0.00 0.00 0.00 0.00 0.00 0.00 0.00
0.00 0.00 0.00 0.00 0.00 0.00 0.00 0.00 0.00 0.00 0.00 0.00 0.00 0.00 0.00 0.00 0.00 0.00 0.00 0.00 0.00 0.00 0.00 0.00 0.00 0.00 0.01 0.01 0.02 0.02 0.02 0.01 0.00 0.00 0.00 0.00 0.00 0.00 0.00 0.00 0.00 0.00 0.00 0.00
0.00 0.00 0.00 0.00 0.00 0.01 0.01 0.00 0.00 0.01 0.01 0.00 0.00 0.00 0.00 0.00 0.00 0.00 0.00 0.00 0.00 0.00 0.00 0.00 0.00 0.00 0.01 0.02 0.02 0.02 0.02 0.03 0.02 0.01 0.01 0.00 0.00 0.00 0.00 0.00 0.00 0.00 0.00 0.00
0.00 0.01 0.01 0.00 0.00 0.00 0.00 0.01 0.01 0.01 0.00 0.00 0.00 0.01 0.01 0.01 0.00 0.01 0.01 0.01 0.00 0.00 0.00 0.00 0.00 0.00 0.01 0.01 0.01 0.02 0.02 0.03 0.03 0.03 0.02 0.01 0.01 0.01 0.00 0.00 0.00 0.00 0.00 0.00
0.01 0.01 0.01 0.01 0.00 0.00 0.00 0.01 0.00 0.00 0.00 0.00 0.00 0.00 0.01 0.01 0.01 0.01 0.01 0.01 0.01 0.01 0.01 0.01 0.01 0.01 0.01 0.01 0.01 0.01 0.02 0.02 0.02 0.02 0.02 0.01 0.01 0.01 0.01 0.01 0.01 0.00 0.00 0.00
0.02 0.02 0.02 0.01 0.01 0.01 0.02 0.03 0.00 0.00 0.00 0.00 0.00 0.01 0.01 0.01 0.01 0.01 0.01 0.02 0.02 0.02 0.02 0.01 0.01 0.01 0.01 0.01 0.01 0.01 0.02 0.02 0.02 0.02 0.01 0.01 0.01 0.01 0.01 0.01 0.00 0.00 0.00 0.00
0.03 0.03 0.01 0.01 0.01 0.02 0.05 0.05 0.01 0.00 0.00 0.00 0.00 0.01 0.01 0.01 0.01 0.02 0.01 0.02 0.02 0.02 0.02 0.02 0.01 0.01 0.01 0.01 0.01 0.02 0.02 0.02 0.02 0.01 0.01 0.01 0.01 0.01 0.01 0.01 0.01 0.01 0.00 0.00
0.03 0.03 0.02 0.00 0.00 0.02 0.04 0.02 0.01 0.01 0.00 0.00 0.01 0.01 0.01 0.01 0.02 0.02 0.02 0.02 0.02 0.02 0.01 0.01 0.01 0.01 0.01 0.02 0.02 0.02 0.03 0.02 0.02 0.02 0.02 0.01 0.01 0.01 0.01 0.01 0.01 0.01 0.01 0.01
0.01 0.01 0.01 0.00 0.00 0.01 0.01 0.01 0.02 0.01 0.01 0.01 0.01 0.01 0.01 0.01 0.02 0.02 0.02 0.02 0.02 0.02 0.02 0.02 0.01 0.01 0.02 0.02 0.03 0.02 0.02 0.02 0.02 0.02 0.02 0.02 0.01 0.01 0.01 0.01 0.01 0.01 0.01 0.01
0.01 0.01 0.01 0.01 0.01 0.01 0.01 0.02 0.02 0.02 0.02 0.01 0.01 0.00 0.01 0.01 0.01 0.01 0.02 0.02 0.01 0.01 0.02 0.02 0.02 0.02 0.02 0.03 0.03 0.02 0.02 0.02 0.02 0.02 0.02 0.02 0.01 0.01 0.01 0.01 0.02 0.02 0.02 0.02
0.02 0.01 0.01 0.01 0.01 0.01 0.02 0.03 0.03 0.04 0.04 0.03 0.02 0.01 0.01 0.00 0.00 0.01 0.01 0.01 0.01 0.01 0.02 0.02 0.02 0.02 0.03 0.03 0.03 0.03 0.03 0.03 0.03 0.03 0.03 0.02 0.02 0.02 0.02 0.02 0.02 0.02 0.02 0.02
0.02 0.01 0.01 0.01 0.01 0.02 0.02 0.03 0.03 0.04 0.03 0.02 0.01 0.01 0.01 0.00 0.00 0.00 0.00 0.00 0.01 0.01 0.02 0.02 0.02 0.02 0.02 0.02 0.03 0.03 0.04 0.04 0.05 0.05 0.05 0.04 0.04 0.03 0.03 0.02 0.02 0.02 0.02 0.01
0.01 0.01 0.02 0.02 0.02 0.02 0.03 0.03 0.03 0.03 0.02 0.02 0.01 0.00 0.00 0.00 0.00 0.00 0.00 0.00 0.01 0.01 0.01 0.02 0.02 0.02 0.01 0.01 0.01 0.01 0.02 0.02 0.02 0.03 0.03 0.04 0.04 0.04 0.03 0.03 0.02 0.02 0.01 0.01
0.01 0.02 0.03 0.04 0.04 0.04 0.04 0.04 0.03 0.02 0.01 0.01 0.00 0.00 0.00 0.00 0.00 0.00 0.00 0.00 0.00 0.00 0.00 0.01 0.01 0.02 0.01 0.00 0.00 0.00 0.00 0.01 0.01 0.01 0.00 0.00 0.01 0.01 0.01 0.01 0.01 0.01 0.01 0.00
0.02 0.02 0.04 0.04 0.04 0.04 0.04 0.03 0.03 0.02 0.01 0.01 0.00 0.00 0.00 0.00 0.00 0.00 0.00 0.00 0.00 0.00 0.00 0.00 0.00 0.00 0.00 0.00 0.00 0.00 0.00 0.00 0.00 0.00 0.00 0.00 0.00 0.00 0.01 0.00 0.00 0.00 0.00 0.00
0.02 0.02 0.03 0.04 0.04 0.05 0.05 0.05 0.05 0.04 0.03 0.02 0.02 0.01 0.01 0.00 0.00 0.00 0.00 0.00 0.00 0.00 0.00 0.00 0.00 0.00 0.00 0.00 0.00 0.00 0.00 0.00 0.00 0.00 0.00 0.00 0.00 0.00 0.00 0.00 0.00 0.00 0.00 0.00
0.02 0.03 0.04 0.04 0.04 0.03 0.03 0.02 0.02 0.03 0.03 0.03 0.03 0.02 0.01 0.01 0.00 0.00 0.00 0.00 0.00 0.00 0.00 0.00 0.00 0.00 0.00 0.00 0.00 0.00 0.00 0.00 0.00 0.00 0.00 0.00 0.00 0.00 0.00 0.00 0.00 0.00 0.00 0.01
0.02 0.03 0.04 0.05 0.04 0.03 0.03 0.02 0.02 0.02 0.02 0.01 0.01 0.00 0.00 0.00 0.00 0.00 0.00 0.00 0.00 0.00 0.00 0.00 0.00 0.00 0.00 0.00 0.00 0.00 0.00 0.00 0.00 0.00 0.00 0.00 0.00 0.00 0.00 0.00 0.00 0.00 0.01 0.01
0.01 0.02 0.03 0.03 0.03 0.02 0.03 0.03 0.02 0.02 0.01 0.00 0.00 0.00 0.00 0.00 0.00 0.00 0.00 0.00 0.00 0.00 0.00 0.00 0.00 0.00 0.00 0.00 0.00 0.00 0.00 0.00 0.00 0.00 0.00 0.00 0.00 0.00 0.00 0.00 0.01 0.01 0.01 0.01
0.01 0.01 0.01 0.01 0.01 0.01 0.01 0.01 0.01 0.00 0.00 0.00 0.00 0.00 0.00 0.00 0.00 0.00 0.00 0.00 0.00 0.00 0.00 0.00 0.00 0.00 0.00 0.00 0.00 0.00 0.00 0.00 0.00 0.00 0.00 0.00 0.00 0.00 0.01 0.01 0.01 0.01 0.01 0.01
0.01 0.01 0.01 0.00 0.00 0.00 0.00 0.00 0.00 0.00 0.00 0.00 0.00 0.00 0.00 0.00 0.00 0.00 0.00 0.00 0.00 0.00 0.00 0.00 0.00 0.00 0.00 0.00 0.00 0.00 0.00 0.00 0.00 0.00 0.00 0.01 0.01 0.01 0.02 0.02 0.02 0.01 0.02 0.02
0.01 0.01 0.01 0.01 0.01 0.01 0.00 0.00 0.00 0.00 0.00 0.00 0.00 0.00 0.00 0.00 0.00 0.00 0.00 0.00 0.00 0.00 0.00 0.00 0.00 0.00 0.00 0.00 0.00 0.00 0.00 0.00 0.00 0.00 0.01 0.01 0.01 0.01 0.01 0.01 0.01 0.01 0.01 0.02
0.00 0.00 0.01 0.01 0.00 0.00 0.00 0.00 0.00 0.00 0.00 0.00 0.00 0.00 0.00 0.00 0.00 0.00 0.00 0.00 0.00 0.00 0.00 0.00 0.00 0.00 0.00 0.00 0.00 0.00 0.00 0.00 0.00 0.01 0.01 0.01 0.01 0.01 0.01 0.01 0.01 0.01 0.02 0.02
0.00 0.00 0.00 0.00 0.00 0.00 0.00 0.00 0.00 0.00 0.00 0.00 0.00 0.00 0.00 0.00 0.00 0.00 0.00 0.00 0.00 0.00 0.00 0.01 0.01 0.00 0.00 0.00 0.00 0.00 0.00 0.01 0.01 0.01 0.01 0.01 0.01 0.01 0.01 0.02 0.02 0.02 0.03 0.03
0.00 0.00 0.00 0.00 0.00 0.00 0.00 0.00 0.00 0.00 0.00 0.00 0.00 0.00 0.00 0.00 0.00 0.00 0.00 0.01 0.01 0.01 0.01 0.01 0.00 0.00 0.00 0.01 0.01 0.01 0.01 0.01 0.01 0.01 0.01 0.01 0.01 0.01 0.02 0.02 0.02 0.03 0.04 0.04
0.00 0.00 0.00 0.00 0.00 0.00 0.00 0.00 0.00 0.00 0.00 0.00 0.00 0.00 0.00 0.00 0.00 0.01 0.01 0.01 0.01 0.01 0.01 0.01 0.01 0.01 0.01 0.01 0.01 0.00 0.01 0.01 0.01 0.01 0.01 0.02 0.02 0.02 0.03 0.03 0.02 0.03 0.04 0.05
0.00 0.00 0.00 0.00 0.00 0.00 0.00 0.00 0.00 0.00 0.01 0.01 0.01 0.00 0.00 0.01 0.01 0.01 0.01 0.01 0.01 0.01 0.01 0.01 0.01 0.01 0.01 0.01 0.01 0.01 0.01 0.01 0.01 0.01 0.02 0.03 0.03 0.04 0.04 0.04 0.03 0.03 0.04 0.05
MSLP
1008.89 1008.87 1008.82 1008.77 1008.74 1008.73 1008.75 1008.78 1008.83 1008.87 1008.89 1008.90 1008.88 1008.84 1008.78 1008.71 1008.64 1008.59 1008.56 1008.56 1008.60 1008.70 1008.84 1009.05 1009.32 1009.65 1010.04 1010.48 1010.95 1011.44 1011.93 1012.42 1012.90 1013.36 1013.80 1014.22 1014.63 1015.03 1015.43 1015.82 1016.19 1016.54 1016.86 1017.15
1008.99 1008.88 1008.72 1008.55 1008.40 1008.29 1008.24 1008.27 1008.35 1008.49 1008.65 1008.81 1008.95 1009.05 1009.10 1009.10 1009.05 1008.97 1008.86 1008.75 1008.67 1008.63 1008.66 1008.75 1008.93 1009.20 1009.53 1009.93 1010.37 1010.83 1011.31 1011.78 1012.24 1012.69 1013.13 1013.55 1013.97 1014.38 1014.79 1015.18 1015.57 1015.93 1016.26 1016.56
1009.08 1008.91 1008.66 1008.39 1008.15 1007.96 1007.87 1007.89 1008.02 1008.24 1008.52 1008.82 1009.12 1009.36 1009.53 1009.61 1009.59 1009.49 1009.33 1009.14 1008.95 1008.79 1008.70 1008.68 1008.75 1008.92 1009.18 1009.51 1009.89 1010.31 1010.75 1011.19 1011.62 1012.05 1012.47 1012.88 1013.29 1013.69 1014.09 1014.49 1014.87 1015.24 1015.57 1015.87
1009.12 1008.89 1008.59 1008.26 1007.95 1007.72 1007.62 1007.64 1007.81 1008.11 1008.50 1008.93 1009.36 1009.73 1010.02 1010.18 1010.22 1010.14 1009.96 1009.71 1009.44 1009.18 1008.97 1008.84 1008.80 1008.86 1009.02 1009.27 1009.57 1009.93 1010.31 1010.70 1011.10 1011.49 1011.88 1012.27 1012.66 1013.04 1013.42 1013.80 1014.17 1014.53 1014.86 1015.16
1009.03 1008.77 1008.44 1008.08 1007.75 1007.52 1007.42 1007.47 1007.69 1008.06 1008.54 1009.08 1009.63 1010.12 1010.51 1010.77 1010.87 1010.83 1010.66 1010.39 1010.07 1009.75 1009.45 1009.22 1009.08 1009.03 1009.09 1009.24 1009.46 1009.74 1010.05 1010.39 1010.74 1011.10 1011.45 1011.81 1012.16 1012.51 1012.87 1013.22 1013.56 1013.89 1014.21 1014.51
1008.78 1008.50 1008.16 1007.81 1007.50 1007.29 1007.23 1007.33 1007.60 1008.04 1008.59 1009.22 1009.87 1010.46 1010.95 1011.29 1011.48 1011.49 1011.36 1011.11 1010.78 1010.42 1010.07 1009.77 1009.55 1009.41 1009.38 1009.44 1009.58 1009.78 1010.03 1010.31 1010.61 1010.92 1011.24 1011.56 1011.87 1012.19 1012.50 1012.81 1013.12 1013.42 1013.72 1013.99
1008.35 1008.07 1007.75 1007.43 1007.17 1007.02 1007.02 1007.18 1007.52 1008.01 1008.63 1009.33 1010.04 1010.71 1011.28 1011.70 1011.97 1012.05 1011.98 1011.78 1011.47 1011.12 1010.76 1010.43 1010.16 1009.97 1009.86 1009.85 1009.93 1010.07 1010.26 1010.49 1010.75 1011.02 1011.29 1011.56 1011.83 1012.10 1012.37 1012.63 1012.89 1013.15 1013.41 1013.67
1007.77 1007.50 1007.22 1006.96 1006.78 1006.72 1006.80 1007.03 1007.44 1007.99 1008.66 1009.40 1010.15 1010.86 1011.49 1011.97 1012.30 1012.47 1012.47 1012.33 1012.09 1011.78 1011.45 1011.12 1010.85 1010.64 1010.50 1010.45 1010.48 1010.58 1010.73 1010.91 1011.13 1011.36 1011.59 1011.82 1012.04 1012.25 1012.46 1012.66 1012.87 1013.08 1013.29 1013.51
1007.10 1006.85 1006.63 1006.47 1006.40 1006.44 1006.61 1006.94 1007.40 1008.00 1008.70 1009.45 1010.22 1010.95 1011.59 1012.12 1012.50 1012.73 1012.80 1012.75 1012.58 1012.35 1012.08 1011.81 1011.56 1011.37 1011.24 1011.18 1011.18 1011.25 1011.37 1011.52 1011.70 1011.88 1012.07 1012.24 1012.40 1012.55 1012.70 1012.84 1012.98 1013.13 1013.29 1013.47
1006.44 1006.24 1006.11 1006.05 1006.09 1006.25 1006.54 1006.95 1007.48 1008.11 1008.82 1009.57 1010.31 1011.02 1011.65 1012.18 1012.59 1012.86 1013.00 1013.03 1012.95 1012.81 1012.63 1012.43 1012.25 1012.10 1012.00 1011.95 1011.95 1012.00 1012.09 1012.21 1012.34 1012.48 1012.60 1012.72 1012.81 1012.90 1012.97 1013.04 1013.11 1013.20 1013.31 1013.43
1005.91 1005.78 1005.74 1005.81 1005.98 1006.26 1006.66 1007.15 1007.73 1008.39 1009.08 1009.79 1010.49 1011.15 1011.74 1012.24 1012.64 1012.93 1013.12 1013.21 1013.22 1013.17 1013.08 1012.97 1012.87 1012.77 1012.71 1012.68 1012.68 1012.72 1012.78 1012.85 1012.93 1013.01 1013.07 1013.11 1013.14 1013.14 1013.14 1013.14 1013.15 1013.18 1013.22 1013.28
1005.62 1005.58 1005.64 1005.83 1006.12 1006.53 1007.02 1007.59 1008.21 1008.87 1009.54 1010.19 1010.82 1011.40 1011.91 1012.35 1012.72 1013.00 1013.21 1013.35 1013.42 1013.45 1013.45 1013.42 1013.38 1013.34 1013.31 1013.29 1013.28 1013.29 1013.31 1013.33 1013.34 1013.34 1013.33 1013.30 1013.24 1013.18 1013.11 1013.05 1012.99 1012.96 1012.95 1012.95
1005.64 1005.68 1005.86 1006.15 1006.56 1007.07 1007.65 1008.28 1008.92 1009.57 1010.19 1010.78 1011.32 1011.80 1012.22 1012.58 1012.88 1013.13 1013.33 1013.49 1013.60 1013.68 1013.73 1013.76 1013.77 1013.76 1013.74 1013.72 1013.68 1013.65 1013.60 1013.55 1013.49 1013.41 1013.32 1013.21 1013.09 1012.96 1012.83 1012.71 1012.61 1012.52 1012.46 1012.42
1005.99 1006.12 1006.38 1006.77 1007.27 1007.86 1008.50 1009.16 1009.81 1010.44 1011.01 1011.52 1011.96 1012.33 1012.65 1012.92 1013.15 1013.34 1013.51 1013.66 1013.78 1013.88 1013.96 1014.01 1014.03 1014.03 1013.99 1013.94 1013.85 1013.75 1013.63 1013.50 1013.35 1013.19 1013.02 1012.85 1012.67 1012.50 1012.33 1012.17 1012.04 1011.92 1011.81 1011.72
1006.65 1006.85 1007.17 1007.62 1008.18 1008.82 1009.49 1010.16 1010.81 1011.39 1011.91 1012.34 1012.68 1012.96 1013.17 1013.34 1013.49 1013.61 1013.73 1013.85 1013.95 1014.05 1014.12 1014.16 1014.17 1014.14 1014.06 1013.95 1013.80 1013.62 1013.42 1013.21 1012.98 1012.75 1012.52 1012.30 1012.09 1011.89 1011.70 1011.53 1011.38 1011.23 1011.10 1010.96
1007.58 1007.80 1008.15 1008.63 1009.21 1009.85 1010.52 1011.19 1011.80 1012.34 1012.79 1013.15 1013.41 1013.59 1013.71 1013.79 1013.85 1013.91 1013.97 1014.04 1014.11 1014.17 1014.21 1014.22 1014.19 1014.11 1013.98 1013.80 1013.58 1013.32 1013.04 1012.75 1012.46 1012.18 1011.92 1011.68 1011.46 1011.26 1011.08 1010.92 1010.76 1010.61 1010.45 1010.26
1008.67 1008.88 1009.22 1009.68 1010.24 1010.86 1011.50 1012.13 1012.70 1013.18 1013.57 1013.85 1014.03 1014.13 1014.17 1014.18 1014.17 1014.16 1014.17 1014.19 1014.21 1014.24 1014.24 1014.21 1014.13 1013.99 1013.80 1013.55 1013.26 1012.93 1012.59 1012.25 1011.93 1011.63 1011.36 1011.13 1010.93 1010.76 1010.60 1010.46 1010.31 1010.15 1009.97 1009.74
1009.83 1010.00 1010.29 1010.69 1011.19 1011.76 1012.34 1012.91 1013.42 1013.84 1014.16 1014.38 1014.50 1014.53 1014.51 1014.45 1014.39 1014.33 1014.29 1014.27 1014.26 1014.24 1014.21 1014.13 1014.01 1013.83 1013.58 1013.28 1012.94 1012.57 1012.19 1011.83 1011.50 1011.20 1010.96 1010.76 1010.61 1010.48 1010.37 1010.26 1010.12 1009.95 1009.73 1009.45
1010.98 1011.07 1011.27 1011.59 1012.01 1012.49 1012.99 1013.48 1013.91 1014.26 1014.52 1014.68 1014.73 1014.72 1014.65 1014.55 1014.46 1014.37 1014.30 1014.26 1014.23 1014.19 1014.13 1014.04 1013.89 1013.68 1013.41 1013.08 1012.71 1012.33 1011.94 1011.59 1011.27 1011.01 1010.81 1010.67 1010.57 1010.49 1010.42 1010.34 1010.21 1010.03 1009.77 1009.42
1012.03 1012.02 1012.13 1012.34 1012.65 1013.03 1013.43 1013.83 1014.18 1014.45 1014.64 1014.74 1014.75 1014.69 1014.60 1014.48 1014.37 1014.28 1014.21 1014.17 1014.14 1014.11 1014.06 1013.96 1013.82 1013.61 1013.33 1013.01 1012.65 1012.27 1011.91 1011.58 1011.30 1011.08 1010.93 1010.84 1010.79 1010.77 1010.73 1010.67 1010.54 1010.33 1010.02 1009.60
1012.93 1012.82 1012.81 1012.92 1013.12 1013.39 1013.69 1013.98 1014.24 1014.43 1014.55 1014.59 1014.56 1014.48 1014.37 1014.26 1014.15 1014.08 1014.04 1014.03 1014.03 1014.03 1014.02 1013.95 1013.84 1013.66 1013.41 1013.12 1012.78 1012.44 1012.11 1011.81 1011.57 1011.40 1011.29 1011.24 1011.23 1011.23 1011.21 1011.15 1011.00 1010.76 1010.39 1009.91
1013.63 1013.43 1013.33 1013.33 1013.43 1013.59 1013.78 1013.97 1014.13 1014.24 1014.29 1014.28 1014.22 1014.12 1014.01 1013.91 1013.84 1013.81 1013.82 1013.87 1013.93 1014.00 1014.04 1014.04 1013.99 1013.86 1013.66 1013.41 1013.12 1012.81 1012.52 1012.25 1012.04 1011.89 1011.81 1011.78 1011.78 1011.78 1011.76 1011.67 1011.50 1011.21 1010.79 1010.24
1014.12 1013.85 1013.67 1013.59 1013.59 1013.65 1013.74 1013.83 1013.90 1013.93 1013.92 1013.86 1013.78 1013.68 1013.58 1013.52 1013.50 1013.53 1013.61 1013.74 1013.89 1014.04 1014.17 1014.25 1014.27 1014.21 1014.08 1013.88 1013.63 1013.36 1013.09 1012.84 1012.64 1012.49 1012.40 1012.36 1012.34 1012.31 1012.26 1012.14 1011.92 1011.59 1011.13 1010.54
1014.40 1014.09 1013.86 1013.71 1013.63 1013.60 1013.60 1013.60 1013.59 1013.55 1013.49 1013.40 1013.30 1013.21 1013.14 1013.13 1013.17 1013.28 1013.45 1013.68 1013.92 1014.17 1014.40 1014.57 1014.67 1014.69 1014.62 1014.47 1014.26 1014.01 1013.75 1013.50 1013.28 1013.11 1012.98 1012.90 1012.83 1012.76 1012.65 1012.49 1012.23 1011.86 1011.36 1010.75
1014.51 1014.18 1013.92 1013.72 1013.58 1013.48 1013.41 1013.33 1013.25 1013.16 1013.05 1012.94 1012.84 1012.78 1012.76 1012.80 1012.92 1013.12 1013.39 1013.71 1014.06 1014.41 1014.72 1014.98 1015.16 1015.25 1015.23 1015.12 1014.94 1014.70 1014.44 1014.16 1013.91 1013.69 1013.50 1013.35 1013.21 1013.08 1012.91 1012.69 1012.39 1012.00 1011.49 1010.88
1014.48 1014.16 1013.89 1013.66 1013.48 1013.33 1013.19 1013.06 1012.93 1012.80 1012.67 1012.56 1012.48 1012.45 1012.49 1012.60 1012.80 1013.09 1013.45 1013.86 1014.30 1014.73 1015.13 1015.46 1015.70 1015.84 1015.87 1015.78 1015.61 1015.37 1015.08 1014.78 1014.47 1014.19 1013.93 1013.71 1013.50 1013.29 1013.06 1012.79 1012.46 1012.05 1011.55 1010.96
1014.40 1014.09 1013.82 1013.58 1013.37 1013.18 1013.00 1012.84 1012.68 1012.54 1012.41 1012.32 1012.27 1012.29 1012.39 1012.58 1012.85 1013.22 1013.65 1014.14 1014.64 1015.14 1015.59 1015.96 1016.25 1016.41 1016.46 1016.39 1016.22 1015.97 1015.66 1015.32 1014.96 1014.62 1014.30 1014.00 1013.72 1013.44 1013.16 1012.86 1012.50 1012.09 1011.61 1011.07
Thickness
5762 5764 5763 5760 5761 5760 5756 5759 5755 5762 5765 5768 5771 5770 5770 5773 5774 5774 5773 5772 5771 5770 5769 5766 5764 5761 5759 5757 5755 5751 5746 5742 5738 5734 5730 5725 5721 5718 5715 5711 5708 5704 5701 5697
5749 5756 5755 5752 5758 5759 5757 5759 5759 5760 5761 5768 5766 5766 5764 5765 5767 5767 5768 5769 5769 5768 5767 5764 5762 5760 5758 5755 5753 5749 5743 5740 5738 5733 5727 5723 5719 5715 5711 5708 5705 5701 5698 5694
5738 5747 5743 5739 5755 5755 5755 5759 5757 5752 5757 5759 5754 5750 5750 5752 5756 5759 5761 5763 5764 5765 5764 5762 5761 5759 5755 5753 5750 5744 5740 5737 5734 5730 5725 5720 5717 5712 5708 5704 5701 5697 5694 5691
5734 5729 5713 5744 5758 5757 5752 5753 5755 5752 5752 5750 5745 5744 5743 5744 5746 5750 5754 5756 5757 5759 5759 5759 5758 5756 5753 5750 5745 5740 5735 5732 5729 5725 5721 5716 5712 5708 5704 5701 5697 5693 5690 5688
5723 5721 5728 5741 5747 5747 5742 5740 5746 5744 5743 5743 5744 5743 5737 5736 5738 5740 5744 5747 5749 5751 5752 5751 5750 5748 5745 5742 5738 5733 5730 5727 5724 5720 5716 5711 5706 5702 5699 5695 5692 5689 5686 5683
5716 5709 5711 5731 5742 5746 5738 5727 5735 5736 5734 5736 5737 5733 5724 5725 5728 5730 5733 5735 5737 5740 5740 5739 5739 5739 5734 5731 5728 5725 5723 5720 5717 5713 5708 5704 5700 5696 5693 5689 5686 5683 5681 5678
5711 5709 5723 5732 5737 5737 5717 5715 5726 5728 5727 5727 5721 5717 5714 5716 5716 5718 5720 5722 5723 5723 5722 5722 5723 5723 5720 5718 5715 5715 5714 5711 5708 5703 5698 5695 5691 5687 5684 5681 5678 5675 5673 5671
5710 5703 5708 5726 5729 5722 5716 5719 5720 5718 5717 5714 5710 5707 5705 5704 5703 5705 5705 5707 5708 5707 5705 5705 5707 5706 5703 5700 5701 5701 5700 5698 5695 5692 5690 5686 5681 5678 5675 5671 5668 5667 5664 5662
5715 5710 5713 5720 5719 5717 5718 5713 5711 5710 5707 5704 5700 5696 5694 5692 5692 5692 5692 5692 5694 5692 5690 5690 5690 5690 5687 5686 5687 5686 5685 5683 5681 5680 5677 5675 5671 5668 5664 5661 5660 5659 5657 5655
5706 5707 5708 5709 5710 5710 5710 5706 5704 5701 5698 5695 5688 5685 5682 5680 5679 5679 5679 5679 5680 5679 5677 5675 5675 5674 5673 5672 5672 5671 5669 5669 5669 5668 5665 5663 5659 5658 5656 5654 5652 5650 5647 5645
5696 5697 5698 5698 5698 5699 5697 5695 5692 5689 5685 5682 5677 5673 5670 5667 5666 5666 5665 5665 5665 5665 5663 5661 5660 5658 5659 5659 5657 5657 5656 5656 5656 5656 5653 5649 5647 5644 5643 5640 5638 5634 5633 5631
5689 5689 5691 5686 5689 5689 5685 5681 5678 5674 5670 5668 5666 5661 5659 5656 5655 5654 5653 5653 5652 5652 5650 5648 5647 5646 5645 5645 5644 5644 5644 5644 5644 5643 5640 5639 5636 5633 5628 5624 5621 5617 5613 5610
5682 5685 5684 5681 5680 5679 5674 5670 5666 5662 5658 5654 5652 5650 5648 5645 5643 5642 5641 5640 5639 5639 5638 5637 5636 5634 5633 5632 5632 5631 5630 5630 5630 5628 5626 5624 5622 5619 5617 5614 5609 5605 5601 5597
5674 5674 5669 5668 5665 5663 5660 5656 5652 5648 5645 5642 5639 5638 5636 5633 5632 5631 5630 5629 5629 5628 5627 5626 5625 5623 5621 5621 5619 5618 5617 5615 5613 5612 5611 5610 5607 5605 5603 5601 5599 5598 5593 5587
5662 5663 5659 5655 5652 5649 5646 5642 5637 5633 5631 5628 5627 5625 5622 5620 5619 5619 5619 5619 5618 5617 5615 5614 5612 5610 5609 5608 5606 5605 5605 5604 5601 5599 5598 5597 5595 5593 5591 5588 5585 5584 5582 5579
5649 5648 5644 5640 5636 5633 5630 5626 5622 5618 5616 5614 5612 5611 5610 5609 5608 5608 5607 5607 5605 5604 5602 5601 5599 5598 5597 5595 5594 5593 5592 5587 5584 5585 5586 5584 5582 5579 5576 5573 5570 5568 5566 5563
5636 5631 5628 5624 5621 5618 5616 5613 5610 5608 5605 5603 5601 5600 5600 5599 5598 5597 5596 5596 5594 5592 5591 5589 5588 5586 5585 5583 5581 5582 5582 5580 5573 5573 5573 5570 5567 5563 5560 5556 5554 5552 5549 5547
5627 5623 5618 5614 5610 5606 5603 5601 5598 5596 5594 5593 5592 5591 5590 5588 5586 5585 5585 5584 5583 5582 5581 5579 5576 5573 5572 5570 5568 5568 5568 5567 5565 5562 5558 5555 5551 5547 5544 5542 5539 5537 5535 5533
5612 5608 5605 5602 5599 5595 5592 5590 5587 5585 5584 5583 5582 5580 5579 5578 5577 5575 5574 5573 5572 5571 5568 5566 5559 5559 5560 5557 5552 5553 5554 5553 5551 5548 5544 5539 5536 5534 5531 5528 5525 5522 5520 5517
5598 5596 5593 5590 5588 5585 5583 5581 5580 5578 5576 5574 5572 5571 5569 5567 5566 5565 5563 5562 5561 5558 5553 5550 5549 5549 5546 5544 5537 5540 5540 5539 5537 5534 5531 5527 5523 5520 5516 5513 5511 5508 5505 5503
5586 5584 5582 5581 5578 5576 5574 5572 5570 5568 5566 5564 5561 5559 5557 5556 5554 5552 5551 5551 5546 5541 5538 5536 5536 5535 5533 5526 5523 5527 5527 5525 5522 5519 5516 5513 5509 5505 5502 5500 5497 5495 5493 5491
5575 5574 5572 5570 5568 5565 5563 5562 5560 5558 5556 5553 5551 5549 5546 5544 5544 5542 5539 5535 5533 5524 5524 5526 5524 5515 5511 5507 5514 5515 5513 5511 5508 5505 5503 5499 5495 5492 5489 5487 5485 5483 5481 5480
5565 5563 5561 5559 5557 5555 5553 5552 5550 5547 5544 5542 5539 5537 5535 5531 5531 5529 5526 5523 5519 5510 5510 5510 5502 5497 5492 5499 5502 5501 5498 5495 5493 5490 5488 5484 5481 5479 5477 5475 5474 5472 5470 5470
5553 5551 5550 5548 5547 5545 5542 5541 5538 5536 5533 5531 5529 5526 5522 5521 5519 5517 5513 5506 5501 5496 5498 5493 5487 5484 5482 5489 5488 5486 5483 5481 5478 5476 5474 5471 5470 5468 5466 5464 5463 5463 5462 5462
5541 5539 5538 5536 5535 5534 5532 5530 5527 5525 5523 5521 5518 5515 5512 5508 5505 5503 5499 5495 5489 5486 5487 5483 5477 5473 5476 5477 5475 5472 5469 5466 5463 5461 5460 5459 5459 5458 5457 5456 5456 5455 5455 5455
5530 5530 5528 5524 5523 5521 5521 5519 5517 5515 5512 5509 5506 5503 5499 5496 5493 5490 5487 5485 5481 5476 5475 5473 5470 5467 5466 5463 5460 5458 5456 5454 5453 5451 5450 5449 5449 5448 5447 5447 5447 5447 5448 5449
5522 5520 5518 5517 5515 5512 5510 5507 5505 5502 5499 5496 5492 5490 5487 5485 5482 5479 5476 5473 5471 5468 5465 5461 5458 5455 5452 5450 5448 5446 5444 5442 5441 5440 5439 5439 5439 5438 5439 5440 5441 5442 5444 5446